measurement_time,temperature,humidity
1503257433,26.46,46.52
1503257493,26.37,47.26
1503257553,26.22,45.53
1503257613,26.31,44.88
1503257673,26.31,44.34
1503257733,26.25,45.13
1503257793,26.52,45.29
1503257853,26.84,44.88
1503257913,26.99,42.24
1503257973,27.01,43.15
1503258033,26.91,43.82
1503258093,26.81,42.73
1503258153,26.67,42.44
1503258213,26.69,43.41
1503258273,26.62,42.72
1503258333,26.53,44.24
1503258393,26.48,45.54
1503258453,26.52,46.40
1503258513,26.58,46.20
1503258573,26.57,43.11
1503258633,26.60,47.33
1503258693,26.66,47.19
1503258753,26.80,46.30
1503258813,26.86,46.02
1503258873,26.90,48.23
1503258933,26.85,45.43
1503258993,26.67,46.67
1503259053,26.60,47.65
1503259113,26.47,43.24
1503259173,26.37,46.44
1503259233,26.32,48.60
1503259293,26.34,51.76
1503259353,26.24,49.36
1503259413,26.25,51.98
1503259473,26.22,50.50
1503259533,26.21,48.43
1503259593,26.19,51.51
1503259653,26.08,53.80
1503259713,25.97,53.05
1503259773,25.92,52.86
1503259833,25.78,54.34
1503259893,25.63,53.35
1503259953,25.58,52.49
1503260013,25.51,54.15
1503260073,25.43,55.54
1503260133,25.35,56.34
1503260193,25.29,55.89
1503260253,25.21,57.48
1503260313,25.15,58.59
1503260373,25.04,60.05
1503260433,24.97,56.58
1503260493,24.92,56.70
1503260553,24.88,53.54
1503260613,24.87,55.12
1503260673,24.88,57.66
1503260733,24.78,58.93
1503260793,24.74,59.53
1503260853,24.69,59.08
1503260913,24.68,60.38
1503260973,24.71,61.65
1503261033,24.72,60.77
1503261093,24.69,58.83
1503261153,24.76,58.58
1503261213,24.79,59.86
1503261273,24.71,59.94
1503261333,24.68,56.22
1503261393,24.75,57.69
1503261453,24.71,58.37
1503261513,24.71,58.85
1503261573,24.75,59.45
1503261633,24.82,60.74
1503261693,24.87,60.59
1503261753,24.90,58.79
1503261813,25.00,57.91
1503261873,25.02,58.87
1503261933,25.06,57.85
1503261993,25.19,58.41
1503262053,25.42,56.22
1503262113,25.74,55.05
1503262173,26.04,52.93
1503262233,26.28,53.33
1503262293,26.46,51.51
1503262353,26.75,52.54
1503262413,26.95,49.74
1503262473,27.25,51.26
1503262533,27.59,49.74
1503262593,27.75,47.22
1503262653,27.81,43.85
1503262713,28.03,44.47
1503262773,28.37,49.05
1503262833,28.61,47.30
1503262893,28.63,47.91
1503262953,28.58,47.00
1503263013,28.53,45.11
1503263073,28.35,41.02
1503263133,28.08,41.92
1503263193,28.09,41.89
1503263253,28.27,44.08
1503263313,28.32,44.45
1503263373,28.19,43.92
1503263433,28.32,41.78
1503263493,28.38,42.43
1503263553,28.29,40.83
1503263613,28.33,41.71
1503263673,28.50,38.18
1503263733,28.59,39.28
1503263793,28.70,41.70
1503263853,28.77,41.66
1503263913,28.84,41.22
1503263973,28.86,42.99
1503264033,28.80,43.30
1503264093,28.62,37.95
1503264153,28.53,40.98
1503264213,28.53,42.51
1503264273,28.58,39.23
1503264333,28.48,40.06
1503264393,28.50,44.03
1503264453,28.46,40.31
1503264513,28.58,41.18
1503264573,28.65,40.76
1503264633,28.57,41.63
1503264693,28.64,40.75
1503264753,28.49,37.17
1503264813,28.46,37.53
1503264873,28.59,42.07
1503264933,28.76,43.04
1503264993,28.80,44.20
1503265053,28.71,41.32
1503265113,28.59,38.99
1503265173,28.35,40.17
1503265233,28.03,42.40
1503265293,27.89,44.53
1503265353,27.81,43.40
1503265413,27.78,38.83
1503265473,27.75,42.76
1503265533,27.64,42.31
1503265593,27.65,40.50
1503265653,27.68,41.31
1503265713,27.50,39.26
1503265773,27.37,41.62
1503265833,27.30,44.33
1503265893,27.24,42.59
1503265953,27.29,43.79
1503266013,27.23,43.36
1503266073,27.17,46.78
1503266133,27.00,44.24
1503266193,26.94,47.03
1503266253,26.66,47.61
1503266313,26.50,46.30
1503266373,26.32,47.61
1503266433,26.15,49.87
1503266493,25.97,49.16
1503266553,25.87,51.07
1503266613,25.76,52.47
1503266673,25.52,53.31
1503266733,25.34,53.76
1503266793,25.24,54.09
1503266853,25.15,54.89
1503266913,25.01,53.80
1503266973,24.98,53.21
1503267033,24.91,53.72
1503267093,24.92,55.33
1503267153,25.00,55.51
1503267213,25.10,56.72
1503267273,25.16,57.43
1503267333,25.21,57.60
1503267393,25.30,58.73
1503267453,25.37,56.63
1503267513,25.52,57.65
1503267573,25.67,57.59
1503267633,25.83,58.11
1503267693,26.03,57.73
1503267753,26.22,57.55
1503267813,26.42,58.43
1503267873,26.65,55.76
1503267933,27.00,53.93
1503267993,27.45,53.06
1503268053,27.87,49.05
1503268113,28.19,45.30
1503268173,28.47,41.29
1503268233,28.58,43.53
1503268293,28.74,45.74
1503268353,28.86,44.79
1503268413,28.77,42.98
1503268473,28.76,42.57
1503268533,28.58,44.08
1503268593,28.20,44.54
1503268653,27.88,46.10
1503268713,27.52,47.71
1503268773,27.12,47.94
1503268833,26.81,45.04
1503268893,26.66,47.87
1503268953,26.37,49.70
1503269013,26.12,49.87
1503269073,25.94,51.67
1503269133,25.83,54.63
1503269193,25.69,56.05
1503269253,25.80,54.32
1503269313,26.08,52.73
1503269373,26.40,51.98
1503269433,26.60,52.67
1503269493,26.54,52.89
1503269553,26.49,51.74
1503269613,26.34,53.57
1503269673,26.17,54.70
1503269733,26.03,54.66
1503269793,26.04,54.20
1503269853,26.09,54.40
1503269913,26.13,53.73
1503269973,26.21,54.54
1503270033,26.17,54.05
1503270093,26.06,52.73
1503270153,25.97,50.90
1503270213,25.91,53.22
1503270273,25.84,51.83
1503270333,25.73,55.01
1503270393,25.57,53.44
1503270453,25.38,54.11
1503270513,25.28,55.72
1503270573,25.28,54.57
1503270633,25.46,56.68
1503270693,25.69,56.34
1503270753,25.91,54.52
1503270813,26.18,55.27
1503270873,26.38,51.55
1503270933,26.37,50.07
1503270993,26.37,49.48
1503271053,26.38,50.68
1503271113,26.37,48.48
1503271173,26.46,45.99
1503271233,26.62,48.11
1503271293,26.68,45.15
1503271353,26.81,46.23
1503271413,26.81,47.10
1503271473,26.80,47.15
1503271533,26.84,46.90
1503271593,26.87,49.58
1503271653,26.79,48.74
1503271713,26.71,45.08
1503271773,26.80,43.34
1503271833,26.71,44.43
1503271893,26.60,44.98
1503271953,26.53,43.53
1503272013,26.43,44.56
1503272073,26.21,46.00
1503272133,26.07,46.97
1503272193,26.06,48.15
1503272253,25.94,49.59
1503272313,25.76,50.88
1503272373,25.59,50.80
1503272433,25.42,48.52
1503272493,25.34,49.85
1503272553,25.23,52.92
1503272613,25.10,52.90
1503272673,25.14,53.53
1503272733,25.08,55.07
1503272793,24.99,54.51
1503272853,24.99,55.37
1503272913,25.00,53.99
1503272973,25.04,54.67
1503273033,25.09,53.38
1503273093,25.17,53.66
1503273153,25.19,53.89
1503273213,25.19,55.15
1503273273,25.09,55.60
1503273333,25.02,55.55
1503273393,24.97,57.79
1503273453,24.91,57.71
1503273513,24.92,57.37
1503273573,24.97,57.50
1503273633,25.05,55.69
1503273693,25.14,55.76
1503273753,25.18,55.41
1503273813,25.17,54.95
1503273873,25.14,56.28
1503273933,25.08,55.37
1503273993,25.00,56.42
1503274053,24.89,56.72
1503274113,24.71,57.27
1503274173,24.56,55.89
1503274233,24.53,56.94
1503274293,24.48,59.59
1503274353,24.39,58.68
1503274413,24.34,59.56
1503274473,24.32,57.11
1503274533,24.39,58.10
1503274593,24.34,57.91
1503274653,24.34,59.30
1503274713,24.33,58.37
1503274773,24.32,57.83
1503274833,24.32,57.50
1503274893,24.20,58.85
1503274953,24.11,57.49
1503275013,24.02,57.76
1503275073,23.96,56.69
1503275133,23.87,55.98
1503275193,23.76,56.15
1503275253,23.60,55.96
1503275313,23.53,55.85
1503275373,23.47,56.36
1503275433,23.37,56.06
1503275493,23.24,57.27
1503275553,23.17,57.34
1503275613,23.07,59.20
1503275673,22.91,58.42
1503275733,22.88,59.00
1503275793,22.81,58.08
1503275853,22.76,58.90
1503275913,22.70,59.14
1503275973,22.64,59.95
1503276033,22.56,60.36
1503276093,22.49,61.55
1503276153,22.50,60.39
1503276213,22.61,58.79
1503276273,22.71,58.24
1503276333,22.75,57.89
1503276393,22.77,58.01
1503276453,22.75,59.80
1503276513,22.65,61.36
1503276573,22.50,61.62
1503276633,22.38,62.47
1503276693,22.24,62.87
1503276753,22.11,63.57
1503276813,22.01,64.35
1503276873,21.87,64.06
1503276933,21.75,64.38
1503276993,21.65,64.80
1503277053,21.58,63.26
1503277113,21.66,62.97
1503277173,21.62,63.04
1503277233,21.64,62.52
1503277293,21.65,63.16
1503277353,21.59,64.08
1503277413,21.46,64.56
1503277473,21.35,64.40
1503277533,21.33,63.81
1503277593,21.35,63.14
1503277653,21.40,63.29
1503277713,21.36,63.69
1503277773,21.36,63.79
1503277833,21.33,64.11
1503277893,21.30,64.18
1503277953,21.24,64.32
1503278013,21.19,64.29
1503278073,21.16,64.42
1503278133,21.10,64.54
1503278193,21.04,65.10
1503278253,20.95,65.60
1503278313,20.92,65.86
1503278373,20.84,66.31
1503278433,20.74,66.86
1503278493,20.59,67.79
1503278553,20.40,68.68
1503278613,20.17,69.42
1503278673,20.01,70.06
1503278733,19.87,70.57
1503278793,19.77,71.24
1503278853,19.68,71.84
1503278913,19.57,72.37
1503278973,19.46,72.48
1503279033,19.41,72.66
1503279093,19.33,72.79
1503279153,19.25,72.99
1503279213,19.17,73.11
1503279273,19.15,73.43
1503279333,19.20,73.50
1503279393,19.25,73.78
1503279453,19.38,74.32
1503279513,19.39,74.44
1503279573,19.37,74.56
1503279633,19.26,74.81
1503279693,19.18,75.10
1503279753,19.14,75.34
1503279813,19.06,75.52
1503279873,19.06,75.98
1503279933,19.02,75.78
1503279993,19.06,75.30
1503280053,19.07,75.91
1503280113,19.08,75.98
1503280173,19.05,76.28
1503280233,19.06,76.53
1503280293,19.06,76.79
1503280353,19.09,76.87
1503280413,19.08,77.00
1503280473,19.05,76.89
1503280533,18.96,76.99
1503280593,18.85,77.23
1503280653,18.73,77.43
1503280713,18.63,77.64
1503280773,18.49,77.96
1503280833,18.36,78.29
1503280893,18.23,78.51
1503280953,18.14,78.83
1503281013,18.04,79.19
1503281073,17.97,79.45
1503281133,17.92,79.87
1503281193,17.87,80.18
1503281253,17.81,80.51
1503281313,17.78,80.80
1503281373,17.74,80.94
1503281433,17.72,81.07
1503281493,17.66,81.20
1503281553,17.60,81.38
1503281613,17.56,81.63
1503281673,17.50,82.82
1503281733,17.47,84.31
1503281793,17.45,87.56
1503281853,17.39,89.13
1503281913,17.40,90.16
1503281973,17.40,91.00
1503282033,17.44,91.62
1503282093,17.50,92.12
1503282153,17.51,92.49
1503282213,17.50,92.74
1503282273,17.51,93.02
1503282333,17.59,93.30
1503282393,17.62,93.50
1503282453,17.64,93.67
1503282513,17.66,93.82
1503282573,17.72,93.99
1503282633,17.74,94.13
1503282693,17.80,94.27
1503282753,17.83,94.44
1503282813,17.89,94.57
1503282873,17.89,94.67
1503282933,17.93,94.83
1503282993,17.96,94.95
1503283053,17.98,95.06
1503283113,17.98,95.16
1503283173,17.99,95.25
1503283233,18.02,95.38
1503283293,18.00,95.47
1503283353,18.02,95.56
1503283413,17.99,95.65
1503283473,17.97,95.71
1503283533,17.98,95.78
1503283593,18.00,95.86
1503283653,17.96,95.94
1503283713,17.92,96.02
1503283773,17.88,96.09
1503283833,17.83,96.18
1503283893,17.75,96.22
1503283953,17.68,96.30
1503284013,17.63,96.35
1503284073,17.56,96.42
1503284133,17.51,96.50
1503284193,17.45,96.59
1503284253,17.40,96.65
1503284313,17.37,96.75
1503284373,17.38,96.82
1503284433,17.36,96.89
1503284493,17.34,96.94
1503284553,17.30,96.99
1503284613,17.25,97.05
1503284673,17.22,97.12
1503284733,17.22,97.18
1503284793,17.19,97.21
1503284853,17.14,97.28
1503284913,17.10,97.32
1503284973,17.03,97.37
1503285033,17.01,97.40
1503285093,16.94,97.44
1503285153,16.93,97.47
1503285213,16.88,97.56
1503285273,16.85,97.60
1503285333,16.82,97.65
1503285393,16.77,97.68
1503285453,16.74,97.73
1503285513,16.71,97.77
1503285573,16.70,97.82
1503285633,16.70,97.84
1503285693,16.67,97.89
1503285753,16.65,97.91
1503285813,16.65,97.97
1503285873,16.63,97.98
1503285933,16.61,98.02
1503285993,16.60,98.06
1503286053,16.57,98.09
1503286113,16.57,98.11
1503286173,16.52,98.14
1503286233,16.50,98.18
1503286293,16.47,98.24
1503286353,16.50,98.23
1503286413,16.49,98.29
1503286473,16.46,98.30
1503286533,16.46,98.31
1503286593,16.41,98.37
1503286653,16.41,98.41
1503286713,16.37,98.40
1503286773,16.37,98.45
1503286833,16.36,98.47
1503286893,16.34,98.50
1503286953,16.32,98.53
1503287013,16.32,98.58
1503287073,16.33,98.60
1503287133,16.31,98.63
1503287193,16.28,98.64
1503287253,16.27,98.65
1503287313,16.29,98.68
1503287373,16.29,98.71
1503287433,16.30,98.75
1503287493,16.28,98.75
1503287553,16.24,98.76
1503287613,16.22,98.82
1503287673,16.22,98.85
1503287733,16.26,98.85
1503287793,16.27,98.86
1503287853,16.21,98.92
1503287913,16.20,98.93
1503287973,16.26,98.95
1503288033,16.24,98.97
1503288093,16.22,98.99
1503288153,16.22,98.99
1503288213,16.26,99.05
1503288273,16.27,99.05
1503288333,16.26,99.07
1503288393,16.26,99.08
1503288453,16.27,99.11
1503288513,16.24,99.12
1503288573,16.27,99.13
1503288633,16.29,99.18
1503288693,16.27,99.18
1503288753,16.22,99.21
1503288813,16.17,99.22
1503288873,16.15,99.24
1503288933,16.14,99.27
1503288993,16.14,99.27
1503289053,16.13,99.30
1503289113,16.13,99.30
1503289173,16.11,99.32
1503289233,16.08,99.36
1503289293,16.11,99.36
1503289353,16.10,99.40
1503289413,16.07,99.42
1503289473,16.06,99.42
1503289533,16.04,99.46
1503289593,16.04,99.46
1503289653,16.06,99.48
1503289713,16.05,99.48
1503289773,16.06,99.50
1503289833,16.06,99.53
1503289893,16.08,99.53
1503289953,16.10,99.55
1503290013,16.07,99.56
1503290073,16.10,99.58
1503290133,16.08,99.59
1503290193,16.07,99.63
1503290253,16.06,99.63
1503290313,16.05,99.65
1503290373,16.00,99.67
1503290433,16.00,99.67
1503290493,15.99,99.66
1503290553,16.00,99.69
1503290613,16.00,99.71
1503290673,16.00,99.72
1503290733,16.02,99.74
1503290793,16.01,99.75
1503290853,15.99,99.79
1503290913,15.98,99.77
1503290973,15.96,99.80
1503291033,15.93,99.80
1503291093,15.91,99.85
1503291153,15.90,99.85
1503291213,15.90,99.85
1503291273,15.88,99.87
1503291333,15.86,99.91
1503291393,15.86,99.91
1503291453,15.87,99.92
1503291513,15.86,99.95
1503291573,15.86,99.95
1503291633,15.86,99.98
1503291693,15.86,99.98
1503291753,15.85,99.98
1503291813,15.84,100.01
1503291873,15.82,100.03
1503291933,15.75,100.01
1503291993,15.75,100.06
1503292053,15.72,100.05
1503292113,15.72,100.07
1503292173,15.70,100.08
1503292233,15.70,100.10
1503292293,15.70,100.11
1503292353,15.67,100.11
1503292413,15.66,100.11
1503292473,15.61,100.14
1503292533,15.57,100.16
1503292593,15.58,100.17
1503292653,15.55,100.19
1503292713,15.55,100.20
1503292773,15.55,100.24
1503292833,15.53,100.24
1503292893,15.53,100.23
1503292953,15.53,100.25
1503293013,15.47,100.25
1503293073,15.43,100.27
1503293133,15.36,100.27
1503293193,15.31,100.33
1503293253,15.24,100.33
1503293313,15.22,100.33
1503293373,15.18,100.34
1503293433,15.15,100.34
1503293493,15.16,100.35
1503293553,15.15,100.38
1503293613,15.15,100.38
1503293673,15.11,100.37
1503293733,15.08,100.37
1503293793,15.04,100.40
1503293853,14.98,100.43
1503293913,14.97,100.46
1503293973,14.94,100.46
1503294033,14.93,100.49
1503294093,14.91,100.50
1503294153,14.87,100.52
1503294213,14.91,100.54
1503294273,14.86,100.56
1503294333,14.81,100.56
1503294393,14.81,100.59
1503294453,14.79,100.59
1503294513,14.79,100.61
1503294573,14.79,100.63
1503294633,14.83,100.63
1503294693,14.80,100.65
1503294753,14.79,100.66
1503294813,14.82,100.67
1503294873,14.80,100.67
1503294933,14.77,100.70
1503294993,14.75,100.72
1503295053,14.71,100.72
1503295113,14.72,100.73
1503295173,14.72,100.74
1503295233,14.70,100.75
1503295293,14.71,100.77
1503295353,14.70,100.78
1503295413,14.68,100.81
1503295473,14.67,100.82
1503295533,14.69,100.81
1503295593,14.71,100.82
1503295653,14.75,100.81
1503295713,14.72,100.82
1503295773,14.69,100.86
1503295833,14.71,100.86
1503295893,14.74,100.84
1503295953,14.78,100.88
1503296013,14.79,100.85
1503296073,14.82,100.87
1503296133,14.84,100.88
1503296193,14.82,100.91
1503296253,14.77,100.95
1503296313,14.78,100.91
1503296373,14.78,100.94
1503296433,14.78,100.95
1503296493,14.81,100.95
1503296553,14.82,100.92
1503296613,14.85,100.95
1503296673,14.85,100.97
1503296733,14.82,100.97
1503296793,14.79,100.97
1503296853,14.78,101.00
1503296913,14.78,101.01
1503296973,14.78,101.02
1503297033,14.78,101.06
1503297093,14.78,101.04
1503297153,14.73,101.04
1503297213,14.73,101.08
1503297273,14.73,101.08
1503297333,14.70,101.07
1503297393,14.69,101.07
1503297453,14.70,101.10
1503297513,14.67,101.12
1503297573,14.65,101.11
1503297633,14.62,101.14
1503297693,14.57,101.14
1503297753,14.54,101.15
1503297813,14.53,101.17
1503297873,14.50,101.16
1503297933,14.49,101.18
1503297993,14.48,101.20
1503298053,14.47,101.22
1503298113,14.48,101.23
1503298173,14.49,101.20
1503298233,14.49,101.22
1503298293,14.47,101.23
1503298353,14.45,101.24
1503298413,14.43,101.25
1503298473,14.44,101.27
1503298533,14.42,101.28
1503298593,14.45,101.27
1503298653,14.47,101.30
1503298713,14.45,101.29
1503298773,14.45,101.31
1503298833,14.42,101.30
1503298893,14.41,101.33
1503298953,14.41,101.32
1503299013,14.40,101.31
1503299073,14.38,101.33
1503299133,14.38,101.35
1503299193,14.39,101.34
1503299253,14.40,101.34
1503299313,14.37,101.36
1503299373,14.38,101.36
1503299433,14.35,101.36
1503299493,14.36,101.37
1503299553,14.33,101.38
1503299613,14.29,101.41
1503299673,14.30,101.41
1503299733,14.32,101.41
1503299793,14.32,101.42
1503299853,14.30,101.43
1503299913,14.30,101.45
1503299973,14.32,101.44
1503300033,14.30,101.47
1503300093,14.28,101.48
1503300153,14.28,101.49
1503300213,14.24,101.47
1503300273,14.23,101.47
1503300333,14.24,101.49
1503300393,14.21,101.49
1503300453,14.22,101.49
1503300513,14.21,101.53
1503300573,14.19,101.52
1503300633,14.20,101.52
1503300693,14.21,101.53
1503300753,14.18,101.53
1503300813,14.18,101.54
1503300873,14.15,101.55
1503300933,14.17,101.57
1503300993,14.11,101.59
1503301053,14.12,101.59
1503301113,14.11,101.55
1503301173,14.10,101.59
1503301233,14.11,101.59
1503301293,14.10,101.60
1503301353,14.10,101.60
1503301413,14.09,101.65
1503301473,14.10,101.64
1503301533,14.08,101.63
1503301593,14.09,101.62
1503301653,14.05,101.63
1503301713,14.05,101.63
1503301773,14.00,101.65
1503301833,14.00,101.65
1503301893,14.00,101.65
1503301953,13.99,101.67
1503302013,13.99,101.66
1503302073,13.97,101.69
1503302133,13.97,101.69
1503302193,13.93,101.68
1503302253,13.92,101.68
1503302313,13.89,101.70
1503302373,13.86,101.71
1503302433,13.81,101.69
1503302493,13.78,101.72
1503302553,13.79,101.72
1503302613,13.76,101.75
1503302673,13.73,101.75
1503302733,13.70,101.72
1503302793,13.71,101.75
1503302853,13.68,101.76
1503302913,13.66,101.75
1503302973,13.68,101.75
1503303033,13.65,101.75
1503303093,13.63,101.74
1503303153,13.64,101.76
1503303213,13.63,101.77
1503303273,13.68,101.76
1503303333,13.66,101.76
1503303393,13.64,101.78
1503303453,13.64,101.78
1503303513,13.59,101.80
1503303573,13.56,101.79
1503303633,13.53,101.79
1503303693,13.53,101.82
1503303753,13.51,101.81
1503303813,13.50,101.82
1503303873,13.48,101.85
1503303933,13.48,101.83
1503303993,13.45,101.84
1503304053,13.46,101.84
1503304113,13.43,101.88
1503304173,13.41,101.87
1503304233,13.40,101.86
1503304293,13.37,101.88
1503304353,13.35,101.87
1503304413,13.33,101.91
1503304473,13.32,101.88
1503304533,13.25,101.91
1503304593,13.23,101.90
1503304653,13.21,101.90
1503304713,13.22,101.91
1503304773,13.21,101.93
1503304833,13.22,101.91
1503304893,13.21,101.93
1503304953,13.21,101.94
1503305013,13.21,101.94
1503305073,13.19,101.95
1503305133,13.22,101.94
1503305193,13.24,101.94
1503305253,13.23,101.96
1503305313,13.23,101.96
1503305373,13.21,101.94
1503305433,13.17,101.97
1503305493,13.17,101.96
1503305553,13.15,101.95
1503305613,13.12,101.99
1503305673,13.12,101.99
1503305733,13.11,101.99
1503305793,13.14,102.01
1503305853,13.16,102.01
1503305913,13.16,102.01
1503305973,13.18,102.00
1503306033,13.19,102.00
1503306093,13.23,102.04
1503306153,13.21,102.02
1503306213,13.21,102.04
1503306273,13.17,102.04
1503306333,13.16,102.03
1503306393,13.18,102.06
1503306453,13.18,102.05
1503306513,13.16,102.04
1503306573,13.12,102.05
1503306633,13.11,102.06
1503306693,13.11,102.07
1503306753,13.08,102.06
1503306813,13.06,102.07
1503306873,13.06,102.08
1503306933,13.10,102.07
1503306993,13.11,102.07
1503307053,13.12,102.09
1503307113,13.09,102.10
1503307173,13.08,102.09
1503307233,13.08,102.10
1503307293,13.04,102.10
1503307353,12.99,102.11
1503307413,12.97,102.14
1503307473,12.95,102.15
1503307533,12.93,102.14
1503307593,12.93,102.14
1503307653,12.92,102.14
1503307713,12.88,102.14
1503307773,12.86,102.14
1503307833,12.82,102.15
1503307893,12.84,102.16
1503307953,12.79,102.17
1503308013,12.78,102.15
1503308073,12.76,102.17
1503308133,12.75,102.18
1503308193,12.74,102.18
1503308253,12.69,102.20
1503308313,12.65,102.20
1503308373,12.65,102.20
1503308433,12.69,102.21
1503308493,12.69,102.21
1503308553,12.72,102.22
1503308613,12.70,102.22
1503308673,12.69,102.21
1503308733,12.70,102.23
1503308793,12.65,102.23
1503308853,12.64,102.21
1503308913,12.61,102.25
1503308973,12.61,102.23
1503309033,12.57,102.24
1503309093,12.51,102.25
1503309153,12.45,102.23
1503309213,12.49,102.23
1503309273,12.46,102.23
1503309333,12.46,102.28
1503309393,12.43,102.27
1503309453,12.44,102.26
1503309513,12.42,102.26
1503309573,12.42,102.30
1503309633,12.37,102.29
1503309693,12.36,102.30
1503309753,12.35,102.30
1503309813,12.33,102.31
1503309873,12.32,102.33
1503309933,12.28,102.31
1503309993,12.27,102.31
1503310053,12.22,102.31
1503310113,12.21,102.33
1503310173,12.20,102.33
1503310233,12.20,102.34
1503310293,12.17,102.33
1503310353,12.18,102.34
1503310413,12.15,102.36
1503310473,12.13,102.36
1503310533,12.11,102.33
1503310593,12.13,102.36
1503310653,12.11,102.36
1503310713,12.11,102.35
1503310773,12.10,102.36
1503310833,12.08,102.38
1503310893,12.07,102.37
1503310953,12.07,102.37
1503311013,12.06,102.39
1503311073,12.03,102.39
1503311133,12.01,102.39
1503311193,12.00,102.40
1503311253,12.00,102.40
1503311313,11.99,102.42
1503311373,11.98,102.42
1503311433,11.96,102.42
1503311493,11.94,102.39
1503311553,11.92,102.41
1503311613,11.93,102.40
1503311673,11.92,102.43
1503311733,11.93,102.43
1503311793,11.92,102.43
1503311853,11.96,102.43
1503311913,11.92,102.43
1503311973,11.90,102.43
1503312033,11.93,102.46
1503312093,11.92,102.43
1503312153,11.91,102.46
1503312213,11.90,102.46
1503312273,11.89,102.46
1503312333,11.90,102.46
1503312393,11.91,102.48
1503312453,11.92,102.48
1503312513,11.92,102.47
1503312573,11.92,102.48
1503312633,11.94,102.46
1503312693,11.97,102.46
1503312753,11.94,102.46
1503312813,11.94,102.48
1503312873,11.92,102.49
1503312933,11.90,102.49
1503312993,11.85,102.48
1503313053,11.85,102.50
1503313113,11.81,102.50
1503313173,11.78,102.50
1503313233,11.77,102.52
1503313293,11.78,102.51
1503313353,11.84,102.53
1503313413,11.86,102.50
1503313473,11.81,102.52
1503313533,11.78,102.49
1503313593,11.76,102.53
1503313653,11.75,102.52
1503313713,11.76,102.53
1503313773,11.73,102.51
1503313833,11.74,102.55
1503313893,11.70,102.53
1503313953,11.71,102.53
1503314013,11.69,102.55
1503314073,11.69,102.55
1503314133,11.68,102.53
1503314193,11.69,102.53
1503314253,11.70,102.55
1503314313,11.70,102.55
1503314373,11.71,102.58
1503314433,11.71,102.55
1503314493,11.70,102.59
1503314553,11.70,102.57
1503314613,11.67,102.58
1503314673,11.67,102.60
1503314733,11.64,102.59
1503314793,11.60,102.56
1503314853,11.59,102.59
1503314913,11.57,102.59
1503314973,11.55,102.60
1503315033,11.54,102.60
1503315093,11.53,102.60
1503315153,11.54,102.61
1503315213,11.55,102.64
1503315273,11.57,102.61
1503315333,11.54,102.63
1503315393,11.56,102.62
1503315453,11.53,102.61
1503315513,11.53,102.59
1503315573,11.51,102.63
1503315633,11.48,102.61
1503315693,11.51,102.63
1503315753,11.48,102.65
1503315813,11.46,102.63
1503315873,11.41,102.64
1503315933,11.41,102.65
1503315993,11.41,102.65
1503316053,11.40,102.65
1503316113,11.37,102.65
1503316173,11.33,102.65
1503316233,11.33,102.65
1503316293,11.32,102.67
1503316353,11.30,102.68
1503316413,11.31,102.66
1503316473,11.33,102.70
1503316533,11.32,102.68
1503316593,11.33,102.70
1503316653,11.31,102.69
1503316713,11.32,102.68
1503316773,11.31,102.69
1503316833,11.28,102.68
1503316893,11.30,102.69
1503316953,11.29,102.69
1503317013,11.28,102.69
1503317073,11.31,102.71
1503317133,11.29,102.72
1503317193,11.29,102.70
1503317253,11.28,102.72
1503317313,11.29,102.73
1503317373,11.30,102.71
1503317433,11.28,102.72
1503317493,11.28,102.72
1503317553,11.27,102.72
1503317613,11.24,102.72
1503317673,11.22,102.74
1503317733,11.26,102.72
1503317793,11.23,102.74
1503317853,11.22,102.73
1503317913,11.20,102.74
1503317973,11.22,102.73
1503318033,11.26,102.74
1503318093,11.27,102.76
1503318153,11.30,102.75
1503318213,11.22,102.74
1503318273,11.17,102.78
1503318333,11.19,102.75
1503318393,11.25,102.76
1503318453,11.30,102.78
1503318513,11.32,102.76
1503318573,11.32,102.77
1503318633,11.31,102.76
1503318693,11.30,102.77